Temp
12 12 12 12 12 12 11 11 11 11 11 11 11 11 11 12 12 11 11 11 11 10 10 10 10 10 10 10 9 10 10 10 10 9 10 10 10 10 10 10 11 11 11
13 13 13 13 12 12 12 11 11 11 11 11 11 12 12 11 11 11 10 10 10 9 9 9 9 9 9 9 9 9 9 9 9 9 9 9 9 9 10 10 10 10 11
13 13 13 13 12 12 11 11 11 11 11 12 11 11 11 11 10 10 10 9 9 8 8 8 8 8 8 8 8 9 9 9 9 8 9 9 9 9 9 9 9 10 10
14 13 13 13 12 12 11 11 11 11 11 11 11 11 10 10 10 9 9 8 8 7 7 7 8 8 8 8 8 8 8 8 8 8 8 8 8 8 8 9 9 9 9
13 13 12 12 12 11 11 12 12 12 12 11 11 10 10 10 9 9 8 7 7 7 7 7 7 7 7 7 7 7 7 7 8 7 7 7 7 7 7 7 6 6 7
13 13 12 12 11 11 12 11 12 12 11 11 10 10 10 10 9 8 7 7 7 7 7 7 7 7 7 7 7 7 7 7 7 7 6 6 6 5 3 3 3 3 4
13 12 11 11 11 12 11 11 11 11 10 10 10 9 9 9 8 7 7 7 7 7 6 6 6 6 6 6 7 7 6 6 6 6 5 5 5 2 2 2 3 3 3
12 12 11 11 11 11 11 11 11 10 10 9 8 7 7 7 5 7 6 6 6 6 6 6 6 6 5 6 5 5 5 5 5 5 5 3 1 1 1 2 2 3 3
12 12 11 11 11 11 11 10 10 9 8 8 7 6 6 7 5 5 5 5 5 5 4 5 5 5 5 4 4 4 4 3 3 3 1 -1 -0 0 1 1 2 2 3
11 11 11 11 11 11 10 10 9 8 7 6 5 6 5 4 3 4 3 3 2 2 1 2 4 4 4 3 3 2 2 2 1 1 -2 -2 -1 -0 0 1 1 2 2
10 10 10 10 10 10 10 9 8 7 6 5 5 5 4 3 1 0 2 2 1 1 -0 -1 -2 -1 -2 -2 -3 -3 -4 -5 -4 -4 -3 -2 -2 -1 -1 -0 0 1 1
10 10 10 10 10 9 9 8 7 6 5 5 4 4 3 1 1 -0 -0 0 -0 -0 -1 -1 -2 -2 -2 -3 -3 -4 -3 -3 -5 -5 -4 -4 -3 -2 -2 -1 -1 -1 -0
9 10 9 9 9 8 8 7 6 5 5 4 3 3 2 2 0 -1 -2 -1 -1 -1 -1 -2 -2 -2 -3 -4 -4 -5 -4 -5 -5 -5 -5 -4 -4 -4 -3 -3 -3 -2 -2
9 9 9 8 8 7 6 6 5 4 4 3 3 2 2 1 -0 -2 -3 -3 -2 -2 -1 -1 -2 -3 -4 -4 -5 -6 -6 -6 -6 -6 -5 -5 -5 -5 -4 -4 -4 -4 -3
9 9 8 7 7 6 6 5 4 3 3 2 2 1 1 -0 -1 -2 -3 -4 -4 -4 -3 -2 -2 -3 -4 -5 -6 -6 -6 -6 -6 -6 -6 -6 -6 -5 -5 -5 -5 -4 -4
8 8 7 6 6 5 4 4 3 3 2 2 1 0 -0 -1 -2 -3 -5 -5 -5 -5 -5 -4 -4 -5 -5 -6 -6 -6 -6 -6 -7 -7 -6 -6 -6 -6 -6 -6 -5 -5 -5
7 7 6 5 5 4 4 3 3 2 2 1 0 -0 -1 -2 -3 -4 -5 -5 -6 -6 -6 -5 -5 -6 -6 -6 -6 -6 -6 -7 -7 -7 -7 -7 -7 -7 -7 -6 -6 -6 -5
6 6 5 4 4 3 3 2 2 2 1 0 -0 -1 -2 -4 -3 -5 -6 -6 -6 -6 -6 -7 -7 -7 -6 -6 -6 -7 -7 -6 -7 -7 -7 -7 -7 -7 -7 -7 -6 -6 -6
5 5 4 4 3 2 2 2 1 1 0 -0 -1 -2 -3 -4 -5 -6 -6 -7 -6 -7 -7 -7 -7 -7 -7 -7 -7 -7 -7 -7 -7 -7 -7 -7 -7 -7 -7 -7 -7 -6 -6
5 4 3 3 2 2 2 1 1 -0 -1 -1 -2 -3 -4 -5 -6 -7 -7 -7 -7 -7 -7 -7 -7 -7 -7 -7 -7 -7 -7 -7 -8 -8 -8 -8 -8 -7 -7 -7 -7 -7 -7
4 3 3 2 2 1 1 0 -1 -2 -2 -3 -3 -4 -6 -6 -6 -8 -8 -7 -7 -8 -8 -7 -7 -7 -7 -7 -7 -8 -8 -8 -8 -8 -8 -8 -7 -8 -8 -8 -8 -8 -8
3 2 2 2 1 0 0 -1 -1 -2 -3 -4 -5 -6 -7 -7 -8 -8 -8 -8 -8 -8 -7 -7 -8 -8 -7 -8 -8 -8 -9 -8 -9 -8 -8 -8 -8 -8 -8 -8 -8 -8 -8
2 2 1 1 0 -0 -0 -1 -2 -2 -4 -5 -6 -7 -7 -7 -8 -8 -8 -8 -8 -8 -8 -8 -8 -8 -8 -8 -9 -9 -9 -9 -9 -9 -9 -9 -8 -8 -8 -7 -8 -8 -7
1 1 1 0 -0 -1 -1 -2 -2 -3 -5 -7 -7 -7 -8 -8 -8 -8 -8 -8 -8 -8 -8 -8 -9 -9 -9 -9 -9 -9 -9 -10 -9 -9 -9 -9 -8 -9 -8 -7 -5 -4 -5
1 0 -0 -0 -1 -2 -2 -3 -3 -5 -7 -7 -7 -7 -8 -8 -8 -8 -8 -8 -8 -8 -8 -9 -9 -9 -9 -9 -10 -10 -10 -10 -10 -10 -7 -9 -8 -9 -8 -5 -5 -6 -7
-0 -0 -1 -1 -2 -2 -3 -3 -4 -6 -7 -7 -7 -7 -8 -8 -8 -8 -8 -9 -9 -9 -9 -9 -9 -9 -10 -10 -10 -10 -10 -10 -10 -11 -8 -9 -10 -10 -9 -8 -6 -4 -4
Height
1519 1521 1522 1523 1523 1523 1523 1522 1522 1522 1522 1520 1518 1518 1517 1515 1513 1512 1510 1508 1506 1506 1505 1503 1501 1500 1499 1498 1496 1495 1494 1493 1493 1491 1491 1490 1490 1489 1489 1488 1488 1488 1488
1518 1519 1520 1521 1522 1521 1521 1521 1521 1520 1519 1517 1516 1514 1513 1511 1510 1508 1507 1503 1502 1501 1501 1499 1498 1497 1496 1494 1493 1492 1490 1489 1488 1486 1486 1486 1485 1484 1483 1483 1483 1483 1482
1515 1516 1518 1519 1520 1520 1520 1519 1519 1518 1517 1515 1512 1510 1509 1507 1505 1503 1502 1501 1499 1498 1498 1497 1495 1494 1493 1492 1490 1488 1486 1485 1484 1482 1480 1479 1479 1478 1478 1477 1476 1476 1476
1512 1514 1515 1516 1517 1517 1517 1517 1516 1514 1513 1511 1509 1507 1504 1502 1501 1499 1499 1498 1497 1496 1495 1494 1493 1491 1490 1487 1485 1483 1481 1479 1478 1477 1475 1473 1472 1471 1470 1470 1469 1468 1468
1509 1511 1513 1514 1514 1515 1515 1515 1514 1512 1509 1507 1507 1504 1501 1499 1497 1496 1496 1495 1494 1494 1492 1490 1490 1487 1485 1483 1480 1478 1476 1473 1471 1470 1468 1466 1465 1464 1463 1462 1461 1460 1460
1506 1508 1510 1511 1512 1513 1513 1513 1511 1509 1507 1505 1504 1502 1499 1497 1495 1494 1494 1494 1491 1491 1489 1487 1485 1483 1480 1477 1475 1472 1470 1468 1465 1464 1462 1459 1457 1456 1455 1455 1454 1453 1453
1503 1505 1508 1509 1510 1511 1511 1510 1509 1507 1505 1502 1501 1500 1497 1495 1494 1493 1493 1491 1489 1487 1485 1483 1482 1479 1476 1472 1469 1466 1464 1462 1459 1457 1455 1452 1450 1449 1448 1447 1446 1445 1445
1500 1503 1505 1506 1507 1508 1508 1507 1507 1505 1502 1501 1500 1498 1498 1497 1493 1492 1490 1487 1486 1484 1482 1480 1478 1475 1471 1467 1463 1460 1458 1455 1452 1450 1448 1445 1443 1442 1441 1439 1438 1437 1436
1497 1500 1502 1504 1505 1506 1506 1505 1504 1502 1500 1499 1498 1498 1497 1496 1491 1488 1486 1484 1483 1480 1477 1474 1471 1468 1464 1461 1457 1453 1450 1447 1444 1442 1440 1438 1436 1434 1433 1431 1430 1428 1427
1494 1497 1499 1501 1502 1503 1503 1502 1501 1500 1499 1498 1495 1494 1494 1493 1491 1485 1483 1482 1479 1475 1472 1468 1466 1462 1459 1454 1450 1446 1443 1439 1436 1433 1431 1429 1428 1426 1424 1422 1420 1419 1417
1491 1494 1496 1499 1500 1500 1500 1499 1498 1497 1497 1496 1493 1492 1490 1488 1486 1485 1479 1477 1475 1472 1467 1463 1459 1455 1452 1448 1444 1440 1435 1431 1428 1425 1423 1421 1419 1416 1414 1412 1409 1408 1406
1488 1491 1494 1497 1497 1498 1497 1496 1495 1495 1494 1492 1490 1489 1487 1486 1484 1482 1477 1473 1469 1466 1462 1458 1453 1450 1446 1442 1438 1433 1427 1423 1419 1416 1413 1411 1409 1406 1404 1401 1398 1396 1394
1486 1489 1492 1494 1494 1495 1494 1493 1493 1493 1490 1488 1487 1485 1483 1481 1478 1476 1473 1468 1463 1460 1457 1452 1450 1446 1440 1436 1432 1426 1420 1415 1411 1408 1404 1402 1399 1396 1393 1390 1387 1384 1382
1484 1488 1490 1491 1492 1492 1491 1491 1491 1490 1488 1485 1484 1482 1479 1477 1474 1472 1469 1465 1456 1453 1451 1448 1445 1440 1435 1431 1425 1419 1414 1410 1406 1401 1397 1393 1390 1386 1383 1379 1376 1373 1370
1483 1486 1488 1489 1490 1489 1488 1489 1489 1487 1484 1482 1481 1478 1475 1472 1469 1467 1464 1461 1456 1444 1439 1439 1437 1435 1430 1424 1419 1413 1408 1403 1398 1393 1389 1384 1380 1376 1372 1368 1365 1362 1359
1482 1484 1486 1487 1488 1487 1487 1486 1485 1483 1481 1479 1477 1474 1471 1468 1464 1461 1458 1455 1452 1446 1432 1434 1430 1427 1423 1418 1413 1407 1402 1396 1389 1385 1380 1375 1371 1366 1362 1358 1354 1351 1348
1480 1482 1484 1486 1486 1485 1484 1483 1481 1480 1478 1475 1473 1470 1466 1462 1459 1456 1452 1449 1445 1441 1430 1420 1422 1419 1415 1410 1405 1401 1395 1388 1381 1376 1370 1364 1360 1355 1351 1348 1344 1340 1336
1478 1480 1482 1483 1483 1482 1481 1479 1478 1476 1474 1471 1468 1464 1461 1457 1453 1450 1447 1443 1439 1436 1429 1416 1413 1409 1407 1402 1397 1392 1387 1382 1373 1367 1361 1355 1350 1345 1340 1336 1332 1328 1324
1476 1478 1480 1481 1480 1479 1478 1476 1474 1472 1469 1466 1463 1459 1455 1451 1448 1445 1442 1438 1434 1430 1424 1416 1404 1402 1398 1394 1388 1383 1377 1371 1366 1360 1353 1347 1341 1334 1330 1326 1321 1316 1312
1475 1476 1477 1477 1477 1475 1474 1472 1470 1467 1464 1461 1457 1453 1450 1446 1443 1439 1436 1433 1429 1423 1418 1411 1403 1395 1390 1386 1382 1374 1368 1363 1358 1352 1343 1337 1331 1325 1319 1314 1308 1303 1299
1473 1474 1474 1474 1473 1472 1470 1468 1465 1463 1460 1456 1453 1449 1445 1441 1436 1433 1431 1427 1423 1417 1411 1405 1398 1391 1385 1379 1374 1369 1361 1354 1348 1346 1334 1325 1323 1314 1307 1300 1295 1290 1287
1471 1472 1471 1471 1470 1468 1466 1463 1461 1458 1455 1451 1447 1443 1440 1435 1431 1428 1425 1421 1417 1411 1404 1399 1392 1387 1380 1375 1369 1363 1356 1347 1335 1337 1330 1315 1314 1302 1296 1290 1285 1280 1275
1469 1469 1469 1468 1466 1464 1462 1459 1456 1453 1449 1446 1442 1438 1434 1431 1426 1422 1418 1414 1410 1406 1400 1394 1386 1382 1374 1370 1364 1355 1349 1342 1333 1326 1324 1306 1305 1294 1288 1279 1273 1268 1263
1467 1467 1466 1465 1463 1460 1458 1454 1451 1448 1444 1441 1437 1433 1429 1425 1421 1417 1412 1406 1402 1397 1393 1387 1381 1374 1369 1363 1359 1352 1343 1333 1324 1319 1317 1303 1295 1285 1277 1271 1264 1259 1253
1465 1464 1463 1461 1459 1456 1453 1450 1446 1442 1439 1436 1432 1428 1424 1420 1417 1413 1406 1399 1394 1389 1384 1379 1373 1367 1362 1357 1352 1345 1337 1330 1316 1310 1305 1298 1290 1278 1269 1257 1253 1250 1245
1463 1462 1460 1457 1454 1452 1448 1445 1441 1437 1434 1431 1427 1423 1419 1415 1410 1406 1400 1394 1387 1381 1375 1369 1365 1360 1355 1349 1345 1340 1333 1325 1316 1303 1300 1294 1283 1279 1260 1252 1247 1241 1234
Wind_Speed
8 6 5 4 5 6 5 5 7 9 11 13 15 16 18 18 17 18 18 18 16 16 15 16 17 17 17 17 18 19 19 19 19 20 21 22 23 23 23 23 23 23 24
8 6 5 5 7 8 8 8 11 11 13 14 16 18 19 20 20 19 17 18 14 15 15 15 15 15 14 15 16 18 19 20 21 22 23 24 25 26 26 26 26 26 27
10 9 8 6 7 8 10 10 11 12 13 15 17 19 19 19 18 17 14 12 12 13 13 13 13 14 14 16 19 21 23 24 25 26 28 28 28 29 29 30 31 31 30
13 12 10 8 6 8 10 10 10 11 14 16 17 17 16 16 14 12 11 10 10 11 13 14 16 17 18 21 22 24 25 26 25 26 29 29 30 30 30 31 32 32 33
16 14 12 9 7 8 9 7 9 13 15 16 15 15 16 14 11 10 9 9 9 12 15 18 18 21 24 24 26 26 26 26 27 26 28 29 29 30 30 30 28 30 31
18 15 14 10 8 8 7 7 11 14 15 14 13 13 13 10 9 9 9 10 13 14 19 20 23 25 28 27 27 27 27 27 28 27 28 29 28 28 25 23 25 27 27
21 17 15 10 9 8 6 8 11 13 13 14 12 12 8 7 12 10 10 13 16 21 22 17 25 26 28 28 27 26 26 27 28 28 28 30 29 27 25 27 28 30 29
22 16 14 11 10 7 7 8 10 12 13 14 12 8 4 5 4 5 19 12 16 18 19 23 27 25 26 26 25 27 27 28 29 29 30 29 27 27 28 30 31 31 33
22 15 14 12 10 7 7 8 9 10 12 13 11 6 4 4 13 7 12 15 11 20 22 25 25 26 25 25 27 28 30 30 31 32 30 29 30 30 32 33 34 34 35
20 16 14 13 9 7 7 8 9 10 10 10 11 11 8 9 5 10 8 13 16 20 21 24 24 28 24 25 28 29 28 34 36 33 30 30 31 32 34 35 37 37 38
22 18 15 12 8 7 7 8 10 10 10 10 11 12 12 11 9 8 19 14 21 20 21 18 25 20 20 23 23 21 25 29 29 28 29 31 32 34 35 37 39 40 40
22 18 15 11 7 6 7 9 10 10 11 12 13 13 12 9 9 11 18 22 25 23 21 24 18 20 23 24 23 27 35 35 33 31 30 31 33 34 36 37 38 39 39
22 18 13 8 6 6 7 9 10 11 12 13 13 13 15 14 15 16 18 24 25 26 23 17 22 23 22 20 25 31 35 34 32 32 32 33 34 35 36 37 38 39 39
19 15 10 7 5 6 7 9 10 12 13 14 14 15 16 16 16 17 18 21 30 24 26 23 25 21 16 25 29 30 29 30 31 32 34 35 36 37 38 38 38 39 40
17 12 8 5 5 6 8 9 11 12 13 14 16 16 17 17 18 18 18 18 22 33 33 24 18 23 27 28 29 30 31 31 33 35 35 36 36 38 38 39 39 40 40
14 9 6 4 5 7 8 9 11 13 14 16 17 17 18 19 20 20 19 19 20 26 38 30 30 28 27 29 29 30 31 33 35 35 36 37 39 37 37 38 39 39 39
11 7 4 4 6 7 9 10 12 14 16 17 18 19 21 20 20 19 19 20 22 23 34 40 32 30 31 30 31 29 29 33 39 37 36 36 36 36 36 37 39 40 40
9 5 3 4 6 8 9 11 14 16 17 18 19 20 20 20 23 21 19 21 22 24 30 41 39 36 34 33 31 30 33 38 35 34 34 35 37 37 37 36 37 38 39
7 3 3 5 7 9 11 13 15 17 18 19 20 21 22 23 21 19 20 22 23 26 30 35 42 40 38 36 32 38 32 32 31 32 35 35 35 37 37 37 38 39 40
5 1 3 5 7 10 13 15 17 18 19 20 21 23 23 22 19 20 22 23 25 28 31 34 37 41 36 35 40 36 34 35 36 35 39 35 34 35 36 37 39 40 39
2 2 4 6 9 12 15 16 17 18 19 20 21 22 21 22 25 22 22 23 27 30 32 35 37 32 40 40 35 36 37 39 41 35 38 39 35 43 43 38 38 36 35
1 3 5 9 12 14 16 18 19 20 20 21 21 21 20 21 20 22 24 25 26 28 34 36 37 38 35 35 35 37 42 38 46 33 29 49 42 44 42 42 37 36 37
1 4 8 11 13 15 18 19 21 21 21 21 20 20 21 20 21 23 24 26 27 29 28 34 34 32 34 34 40 41 41 44 40 43 37 48 41 43 43 42 39 37 34
3 6 9 13 15 17 19 20 22 22 19 19 19 20 21 21 22 23 28 31 32 31 28 28 29 32 35 35 35 38 38 41 41 39 30 39 43 40 42 45 36 25 33
5 9 12 15 17 18 20 21 23 20 18 18 19 20 21 23 22 27 28 33 31 30 27 26 28 30 31 33 28 29 32 33 41 39 42 29 31 42 46 43 32 31 32
7 11 14 16 18 19 21 22 23 20 17 19 20 21 22 22 26 26 30 31 33 29 29 33 29 27 24 24 23 22 27 30 35 41 30 31 40 31 27 31 36 48 43
Wind_Direction
175 188 207 217 230 231 247 275 276 289 286 292 297 296 297 298 299 296 294 295 294 287 278 277 281 283 285 284 284 286 288 286 284 281 280 281 280 279 277 275 273 272 271
209 218 219 243 267 260 260 269 275 280 289 295 297 300 298 297 296 294 291 292 289 282 278 283 285 286 287 287 289 291 291 289 287 284 282 279 279 280 279 276 273 271 269
203 205 208 231 289 266 262 260 278 288 292 299 302 301 299 298 294 293 287 280 286 280 282 284 287 288 292 294 294 293 291 289 288 288 286 285 285 283 281 279 277 274 270
205 212 217 230 265 257 264 268 274 295 309 313 314 309 308 307 298 289 281 274 272 279 287 288 290 293 301 305 303 302 298 295 292 288 287 288 287 285 283 282 280 278 276
215 214 218 228 259 254 253 268 298 314 318 322 322 317 313 304 293 282 270 272 277 285 292 296 294 300 303 306 306 303 299 298 296 294 292 290 288 287 286 286 284 279 276
216 213 219 235 244 238 255 290 314 319 322 327 326 318 309 297 288 272 268 280 292 304 300 299 302 306 309 309 307 303 301 299 298 296 293 293 293 291 291 287 285 285 284
211 211 217 231 228 232 263 301 313 322 327 333 338 332 312 296 293 272 268 280 292 300 302 308 307 310 309 307 304 303 301 300 298 296 293 292 292 291 290 288 287 285 282
209 209 210 216 216 234 275 303 316 326 332 338 348 349 317 289 301 261 293 299 291 291 291 303 306 307 309 308 306 305 303 299 296 295 294 294 294 293 289 287 288 283 282
204 209 210 211 219 245 281 305 321 332 334 338 348 2 322 282 306 287 296 296 297 295 299 306 311 316 314 313 311 309 305 301 300 298 297 296 294 291 288 287 286 281 281
200 199 202 213 226 253 287 310 325 330 335 330 336 339 323 301 312 309 296 306 289 307 308 310 312 316 310 310 308 306 304 305 305 303 300 296 293 290 288 285 282 280 278
193 196 204 213 231 266 295 314 325 329 328 329 332 328 324 318 305 286 300 301 302 306 305 307 309 309 308 309 306 306 300 308 307 303 299 294 291 290 288 285 283 280 278
196 190 201 214 240 274 303 318 322 324 326 328 327 323 322 312 297 291 294 299 303 310 302 303 303 303 306 306 303 299 305 309 306 303 299 296 293 290 288 285 281 279 277
188 192 199 215 249 286 308 318 321 321 325 325 323 319 317 311 303 301 299 301 300 304 306 304 300 302 300 299 303 303 304 307 306 303 300 298 295 292 289 286 284 281 279
187 191 202 223 263 294 313 320 319 320 322 323 320 316 313 310 305 303 300 301 305 303 299 299 299 296 296 301 299 303 303 299 298 297 297 296 295 293 290 288 285 282 280
185 192 205 236 274 303 317 317 317 321 322 319 314 312 312 310 306 302 298 295 297 302 303 304 299 298 299 300 301 301 301 300 297 297 297 295 293 294 291 288 286 283 281
185 191 213 253 293 311 315 318 321 321 318 313 312 311 311 308 305 304 299 295 292 292 292 297 300 300 301 300 302 302 300 297 297 299 297 294 292 291 289 288 286 286 282
184 193 224 279 304 315 320 321 320 317 313 312 313 311 310 309 307 304 299 296 293 292 291 297 299 302 303 305 304 301 298 299 301 299 294 295 294 293 291 289 287 285 283
181 191 247 296 312 319 319 320 317 314 315 313 311 310 310 309 308 305 302 299 296 295 293 296 301 305 306 309 302 301 305 298 297 299 298 298 298 294 292 290 288 286 284
179 198 289 311 318 318 319 318 315 316 314 312 310 310 310 308 307 304 302 300 299 296 293 295 300 303 307 306 308 303 307 304 303 300 298 297 297 294 293 292 289 286 283
180 241 311 313 317 320 318 318 318 315 312 310 309 309 307 305 302 303 301 299 298 297 297 295 296 302 304 307 308 308 308 306 305 305 302 300 299 297 295 293 290 287 284
184 299 312 319 320 319 319 319 317 312 309 307 307 306 304 300 302 301 298 300 299 297 295 298 298 301 306 309 309 307 306 307 307 307 305 306 305 303 303 299 293 290 287
220 312 322 319 319 320 317 318 317 314 308 307 306 305 304 302 302 301 299 298 296 297 299 300 302 302 302 303 306 306 306 307 308 313 305 303 307 305 305 303 297 292 291
313 320 318 320 319 318 319 318 318 316 308 307 306 305 305 303 305 305 303 303 299 298 295 299 298 297 299 301 303 308 302 303 299 302 306 301 308 301 306 309 304 299 294
315 318 320 318 319 320 321 320 319 319 309 305 304 303 304 306 307 307 308 304 306 307 299 295 294 295 296 301 300 298 297 299 303 304 305 296 311 305 311 309 318 316 321
315 319 320 321 322 322 322 322 323 318 309 306 306 308 306 306 305 310 309 309 308 303 302 298 299 299 296 297 296 298 300 302 302 305 318 306 308 307 315 321 325 321 306
318 323 323 324 324 322 325 326 324 319 311 311 313 311 308 307 310 312 312 309 306 306 305 313 308 300 301 302 302 298 296 295 301 308 313 309 312 318 315 311 312 323 326